Terminal Aerodrome Forecast
Issued by NWS Tulsa, OK

Home | Current Version | Previous Version | Text Only | Print | Product List | Glossary On
Versions: 1 2 3 4 5 6 7 8 9 10 11 12 13 14 15
000
FTUS44 KTSA 251122
TAFFSM
TAF
KFSM 251122Z 2512/2612 07004KT P6SM BKN040
     FM251400 12008KT P6SM BKN025
     FM252100 19013KT P6SM BKN040
     FM260300 09005KT P6SM BKN100
     FM260900 09005KT P6SM BKN025=

USA.gov is the U.S. government's official web portal to all federal, state and local government web resources and services.